Tracking 28052 objects as of 21-Sep-2023
HD Live streaming from Space Station
objects crossing your sky now

SL-16 R/B

Track SL-16 R/B now!
10-day predictions
SL-16 R/B is classified as:


NORAD ID: 23705
Int'l Code: 1995-058B
Perigee: 840.8 km
Apogee: 856.4 km
Inclination: 71.0 °
Period: 101.7 minutes
Semi major axis: 7219 km
RCS: 9.8957 m2 (large)
Launch date: October 31, 1995
Source: Commonwealth of Independent States (former USSR) (CIS)
Launch site: TYURATAM MISSILE AND SPACE COMPLEX (TTMTR)

Note: This is a ROCKET BODY
Your satellite tracking list
Your tracking list is empty




NASA's NSSDC Master Catalog

Two Line Element Set (TLE):
1 23705U 95058B   23263.76239254  .00000111  00000-0  81645-4 0  9999
2 23705  71.0206 271.3833 0010816  44.3309 315.8678 14.15251994440378
Source of the keplerian elements: AFSPC